Location: High Meadows Obseravatory
(40.7417°N, 111.5713°W)
Time: 01:50:54
(UTC-06:00)

Hubble Space Telescope - Visible Passes

Search period start: 28 October 2021 00:00
Search period end: 07 November 2021 00:00
Orbit: 535 x 539 km, 28.5° (Epoch: 27 October)

Date Brightness Start Highest point End Pass type
(mag) Time Alt. Az. Time Alt. Az. Time Alt. Az.
29 Oct 3.3 20:31:00 10° SSW 20:31:39 11° S 20:31:39 11° S visible
30 Oct 3.1 20:19:30 10° SSW 20:21:12 13° S 20:21:12 13° S visible
31 Oct 3.0 20:08:07 10° SSW 20:10:18 14° S 20:10:44 14° SSE visible
01 Nov 3.0 19:56:48 10° SSW 19:59:05 14° S 20:00:16 13° SSE visible
02 Nov 3.1 19:45:33 10° SW 19:47:51 15° S 19:49:48 11° SSE visible
03 Nov 3.2 19:34:21 10° SW 19:36:37 14° S 19:38:54 10° SSE visible
04 Nov 3.2 19:23:14 10° SW 19:25:24 14° S 19:27:35 10° SSE visible
05 Nov 3.3 19:12:09 10° SW 19:14:10 13° S 19:16:10 10° SSE visible
06 Nov 3.4 19:01:12 10° SW 19:02:56 12° S 19:04:39 10° SSE visible
